Погода в Заполярном

Россия / Республика Коми     67°29′47″N   63°43′48″E
темп.,
°C
ветер,
м/с
пор.,
м/с
влажн.,
%
обл.,
%
осадки,
мм/ч
давл.,
гПа
погр.,
м
2 марта, вт
вт200:00−18ююв101596100 1.3 992395
03:00−17ююв91596100 2.1 991362
06:00−16ююв91595100 1.4 990378
09:00−15ю81395100 2.1 990329
12:00−15ююв71194100 0.2 990271
15:00−15ююв61092100 0.4 991242
18:00−16ююв4789100 0.1 991138
21:00−16ююв4791100 0.1 993161
3 марта, ср
ср300:00−16ююв358995 0.0 992128
03:00−16ююв379497 0.1 993204
06:00−16юв3696100 0.2 992207
09:00−15юв3695100 0.5 992282
12:00−14юв3693100 0.3 992337
15:00−15вюв3494100 0.4 993119
18:00−16вюв2393100 0.1 99249
21:00−16вюв2394100 0.1 99246
4 марта, чт
чт400:00−17в339599 0.1 99254
03:00−17в349399 0.1 99262
06:00−17в349296 0.1 99161
09:00−15вюв359497 0.2 991205
12:00−14вюв469599 0.4 992357
15:00−14вюв4796100 1.1 992323
18:00−14юв4796100 0.7 993235
21:00−15ююв3696100 1.3 993194
5 марта, пт
пт500:00−17ююв349499 0.2 99381
03:00−17ююв349598 0.3 99472
06:00−17ююв239596 0.1 99543
09:00−15юв239398 0.1 99563
12:00−15юв119273 0.0 99621
15:00−18ююв019573 0.0 99720
18:00−20зюз119993 0.0 99820
21:00−17зсз119795 0.1 99920
6 марта, сб
сб600:00−18з229898 0.1 99921
03:00−19зюз239898 0.3 100038
06:00−22зюз349999 0.1 100090
09:00−21юз349899 0.3 1001186
12:00−21юз3497100 0.1 1002252
15:00−23юз3399100 0.1 100367
18:00−26юз23100100 0.0 100319
21:00−26юз22100100 0.1 100419